FW2402 Weather Reports


time (UTC)temp
F
wind
direction
speed
knots
gust
knots
rain 1hr
in
rain 24hr
in
rain mn
in
humidity
%
barometer
mb
20260901220109 84 64 3.5 8.7 0.00 0.00 0.00 82 1014.9
20260901215523 84 77 3.5 8.7 0.00 0.09 0.00 82 1014.9
20260901215025 84 81 3.5 7.0 0.00 0.09 0.00 80 1014.9
20260901214540 85 84 3.5 7.0 0.00 0.09 0.00 79 1014.7
20260901214024 86 82 3.5 8.7 0.00 0.09 0.00 78 1014.6
20260901213524 86 67 5.2 8.7 0.00 0.09 0.00 78 1014.5
20260901213112 86 34 4.3 7.8 0.00 0.09 0.00 77 1014.4
20260901212524 85 81 5.2 9.6 0.00 0.09 0.00 79 1014.4
20260901212025 86 92 5.2 9.6 0.00 0.09 0.00 76 1014.4
20260901211544 87 34 3.5 7.0 0.00 0.09 0.00 76 1014.6
20260901211024 87 44 1.7 8.7 0.00 0.09 0.00 77 1014.8
20260901210524 88 15 3.5 8.7 0.00 0.09 0.00 76 1014.8
20260901210048 87 66 5.2 8.7 0.00 0.09 0.00 74 1014.7
20260901205526 87 65 1.7 10.4 0.00 0.15 0.00 75 1014.8
20260901205025 86 35 3.5 10.4 0.00 0.15 0.00 76 1015.0
20260901204547 86 16 5.2 10.4 0.00 0.15 0.00 76 1014.9
20260901204023 86 88 3.5 10.4 0.00 0.15 0.00 77 1014.8
20260901203525 86 45 4.3 8.7 0.00 0.15 0.00 76 1014.7
20260901203058 86 38 2.6 12.2 0.00 0.15 0.00 77 1014.6
20260901202523 86 57 6.1 12.2 0.00 0.15 0.00 77 1014.6
20260901202027 85 74 5.2 9.6 0.00 0.15 0.00 78 1014.7
20260901201542 85 82 4.3 9.6 0.00 0.15 0.00 75 1014.9
20260901201026 86 74 2.6 7.8 0.00 0.15 0.00 74 1015.0
20260901200525 87 84 2.6 7.8 0.00 0.15 0.00 76 1015.0
20260901200048 86 90 3.5 7.0 0.00 0.15 0.00 78 1014.9
20260901195524 85 115 1.7 7.0 0.00 0.15 0.00 82 1015.1
20260901195023 85 70 3.5 7.0 0.00 0.15 0.00 79 1015.2
20260901194549 85 82 2.6 7.8 0.00 0.15 0.00 80 1015.3
20260901194025 85 49 4.3 10.4 0.00 0.15 0.00 79 1015.1
20260901193524 86 40 4.3 11.3 0.00 0.15 0.00 79 1015.1
20260901193051 87 56 7.0 13.9 0.00 0.15 0.00 75 1015.1
20260901192524 87 70 6.1 13.9 0.00 0.15 0.00 76 1015.1
20260901192025 87 86 4.3 13.9 0.00 0.15 0.00 76 1015.3
20260901191547 86 56 5.2 13.9 0.00 0.15 0.00 77 1015.3
20260901191025 85 60 7.8 13.9 0.00 0.15 0.00 77 1015.2
20260901190524 88 67 7.8 13.9 0.00 0.15 0.00 74 1015.3
20260901190044 87 120 1.7 7.0 0.00 0.15 0.00 78 1015.2
20260901185526 86 0 0.9 3.5 0.00 0.15 0.00 78 1015.2
20260901185024 86 286 0.0 3.5 0.00 0.15 0.00 84 1015.4
20260901184540 86 290 0.9 3.5 0.00 0.15 0.00 80 1015.5
20260901184025 86 271 0.9 3.5 0.00 0.15 0.00 81 1015.4
20260901183525 85 264 0.0 2.6 0.00 0.15 0.00 83 1015.5
20260901183055 83 280 0.9 5.2 0.00 0.15 0.00 83 1015.5
20260901182524 83 286 0.9 7.8 0.00 0.15 0.00 83 1015.6
20260901182025 83 258 2.6 7.8 0.00 0.15 0.00 84 1015.8
20260901181547 82 277 4.3 7.8 0.00 0.15 0.00 86 1015.7
20260901181023 81 279 4.3 8.7 0.00 0.15 0.00 89 1015.8
20260901180527 79 290 4.3 8.7 0.00 0.15 0.00 88 1015.8
20260901180043 79 276 2.6 9.6 0.00 0.15 0.00 86 1016.0
20260901175521 81 266 4.3 9.6 0.00 0.15 0.00 81 1016.1
20260901175025 84 279 3.5 7.8 0.00 0.15 0.00 81 1016.2
20260901174542 85 284 0.9 5.2 0.00 0.15 0.00 80 1016.2
20260901174025 85 308 0.9 8.7 0.00 0.15 0.00 79 1016.3
20260901173524 88 5 3.5 8.7 0.00 0.15 0.00 74 1016.3
20260901173057 90 0 0.9 8.7 0.00 0.15 0.00 72 1016.2
20260901172524 90 251 3.5 8.7 0.00 0.15 0.00 74 1016.3
20260901172025 89 69 2.6 5.2 0.00 0.15 0.00 72 1016.2
20260901171548 89 61 0.0 5.2 0.00 0.15 0.00 75 1016.3
20260901171026 89 86 0.9 6.1 0.00 0.15 0.00 74 1016.2
20260901170523 88 48 1.7 6.1 0.00 0.15 0.00 74 1016.2
20260901170048 87 0 0.0 3.5 0.00 0.15 0.00 79 1016.3
20260901165526 88 256 0.9 3.5 0.00 0.15 0.00 77 1016.4
20260901165025 87 0 0.0 3.5 0.00 0.15 0.00 79 1016.4
20260901164550 87 0 0.9 3.5 0.00 0.15 0.00 79 1016.5
20260901164028 87 29 0.9 6.1 0.00 0.15 0.00 79 1016.5
20260901163524 89 48 2.6 6.1 0.00 0.15 0.00 74 1016.6
20260901163043 88 55 2.6 5.2 0.00 0.15 0.00 78 1016.6
20260901162524 87 0 0.0 5.2 0.00 0.15 0.00 79 1016.6
20260901162023 87 275 0.9 3.5 0.00 0.15 0.00 75 1016.7
20260901161542 86 0 0.0 3.5 0.00 0.15 0.00 78 1016.7
20260901161024 87 5 0.9 3.5 0.00 0.15 0.00 78 1016.8
20260901160525 86 0 0.0 4.3 0.00 0.15 0.00 82 1016.8
20260901160048 86 0 0.0 4.3 0.00 0.15 0.00 81 1016.8
20260901155524 86 91 2.6 7.0 0.00 0.15 0.00 78 1016.9
20260901155026 86 36 2.6 7.0 0.00 0.15 0.00 80 1017.0
20260901154541 86 91 2.6 7.0 0.00 0.15 0.00 78 1017.0
20260901154025 86 63 2.6 7.0 0.00 0.15 0.00 83 1017.0
20260901153525 85 41 1.7 5.2 0.00 0.15 0.00 86 1017.0
20260901153049 84 40 0.9 5.2 0.00 0.15 0.00 84 1016.9
20260901152525 83 55 0.9 3.5 0.00 0.15 0.00 85 1017.0
20260901152027 84 289 0.9 6.1 0.00 0.15 0.00 82 1017.0
20260901151547 85 0 1.7 6.1 0.00 0.15 0.00 86 1017.0
20260901151026 84 265 1.7 5.2 0.00 0.15 0.00 86 1017.1
20260901150525 85 53 0.9 5.2 0.00 0.15 0.00 87 1017.0
20260901150043 85 80 1.7 4.3 0.00 0.15 0.00 85 1017.0
20260901145523 85 360 1.7 4.3 0.00 0.15 0.00 86 1017.0
20260901145026 84 51 2.6 4.3 0.00 0.15 0.00 87 1017.0
20260901144541 82 24 1.7 4.3 0.00 0.15 0.00 89 1017.0
20260901144025 84 0 0.0 4.3 0.00 0.15 0.00 88 1017.0
20260901143526 83 216 0.9 4.3 0.00 0.15 0.00 87 1016.8
20260901143050 84 74 0.9 3.5 0.00 0.15 0.00 90 1016.8
20260901142525 83 59 1.7 4.3 0.00 0.15 0.00 91 1016.7
20260901142022 83 65 1.7 6.1 0.00 0.15 0.00 91 1016.5
20260901141545 81 39 3.5 7.0 0.00 0.15 0.00 93 1016.6
20260901141030 81 51 3.5 7.0 0.00 0.15 0.00 95 1016.5
20260901140522 80 36 2.6 5.2 0.00 0.15 0.00 96 1016.6
20260901140052 80 73 1.7 3.5 0.00 0.15 0.00 97 1016.7
20260901135522 80 43 1.7 3.5 0.00 0.15 0.00 97 1016.7
20260901135023 80 35 0.9 6.1 0.00 0.15 0.00 97 1016.7
20260901134557 79 36 2.6 6.1 0.00 0.15 0.00 97 1016.6
20260901134020 79 31 2.6 6.1 0.00 0.15 0.00 97 1016.6
20260901133518 78 43 1.7 4.3 0.00 0.15 0.00 97 1016.7
20260901133046 78 51 0.0 2.6 0.00 0.15 0.00 97 1016.7
20260901132524 78 0 0.0 0.9 0.00 0.15 0.00 97 1016.6
20260901132024 78 0 0.0 2.6 0.00 0.15 0.00 97 1016.6
20260901131545 78 0 0.0 2.6 0.00 0.15 0.00 97 1016.7
20260901131023 78 0 0.0 1.7 0.00 0.15 0.00 97 1016.6
20260901130523 78 0 0.0 2.6 0.00 0.15 0.00 97 1016.7
20260901130045 77 0 0.0 2.6 0.00 0.15 0.00 97 1016.6
20260901125520 77 58 0.9 2.6 0.00 0.15 0.00 97 1016.6
20260901125021 77 0 0.0 1.7 0.00 0.15 0.00 97 1016.6
20260901124543 77 286 0.0 1.7 0.00 0.15 0.00 97 1016.6
20260901124024 77 0 0.0 1.7 0.00 0.15 0.00 97 1016.5
20260901123520 77 51 0.0 0.9 0.00 0.15 0.00 97 1016.4
20260901123038 77 0 0.0 2.6 0.00 0.15 0.00 97 1016.4
20260901122521 77 0 0.0 2.6 0.00 0.15 0.00 97 1016.3
20260901122024 77 0 0.0 2.6 0.00 0.15 0.00 97 1016.3
20260901121542 77 0 0.0 1.7 0.00 0.15 0.00 97 1016.3
20260901121021 77 0 0.0 1.7 0.00 0.15 0.00 97 1016.2
20260901120520 77 0 0.0 1.7 0.00 0.15 0.00 97 1016.2
20260901120052 77 0 0.0 1.7 0.00 0.15 0.00 97 1016.3
20260901115518 77 0 0.0 0.0 0.00 0.15 0.00 97 1016.3
20260901115023 77 0 0.0 0.0 0.00 0.15 0.00 97 1016.2
20260901114540 76 0 0.0 0.0 0.00 0.15 0.00 97 1016.0
20260901114024 76 0 0.0 0.0 0.00 0.15 0.00 97 1016.0
20260901113526 76 0 0.0 0.0 0.00 0.15 0.00 97 1016.0
20260901113048 76 0 0.0 0.0 0.00 0.15 0.00 97 1016.0
20260901112522 76 0 0.0 0.0 0.00 0.15 0.00 97 1015.9
20260901112024 76 0 0.0 0.0 0.00 0.15 0.00 97 1015.9
20260901111550 76 0 0.0 1.7 0.00 0.15 0.00 97 1015.8
20260901111019 76 0 0.0 1.7 0.00 0.15 0.00 97 1015.6
20260901110520 76 0 0.0 3.5 0.00 0.15 0.00 97 1015.5
20260901110046 76 53 1.7 3.5 0.00 0.15 0.00 97 1015.4
20260901105523 76 38 0.0 1.7 0.00 0.15 0.00 97 1015.5
20260901105027 76 0 0.0 2.6 0.00 0.15 0.00 97 1015.5
20260901104544 76 0 0.0 2.6 0.00 0.15 0.00 97 1015.3
20260901104024 76 0 0.0 1.7 0.00 0.15 0.00 97 1015.4
20260901103525 76 0 0.0 0.0 0.00 0.15 0.00 97 1015.4
20260901103042 76 0 0.0 0.0 0.00 0.15 0.00 97 1015.3
20260901102521 76 0 0.0 1.7 0.00 0.15 0.00 97 1015.3
20260901102018 76 0 0.0 1.7 0.00 0.15 0.00 97 1015.2
20260901101540 76 0 0.0 1.7 0.00 0.15 0.00 97 1015.1
20260901101020 76 0 0.0 0.9 0.00 0.15 0.00 97 1015.2
20260901100518 76 0 0.0 1.7 0.00 0.15 0.00 97 1015.2
20260901100042 76 0 0.0 1.7 0.00 0.15 0.00 97 1015.1
20260901095523 76 0 0.0 1.7 0.00 0.15 0.00 97 1015.2
20260901095024 76 0 0.0 1.7 0.00 0.15 0.00 97 1015.1
20260901094544 76 0 0.0 3.5 0.00 0.15 0.00 97 1015.0
20260901094022 76 29 0.0 3.5 0.00 0.15 0.00 97 1015.1
20260901093527 76 44 0.0 3.5 0.00 0.15 0.00 97 1015.0
20260901093043 76 17 0.9 2.6 0.00 0.15 0.00 97 1014.9
20260901092518 76 38 0.0 1.7 0.00 0.15 0.00 97 1014.8
20260901092018 76 0 0.0 0.9 0.00 0.15 0.00 97 1014.7
20260901091541 75 0 0.0 0.9 0.00 0.15 0.00 97 1014.8
20260901091019 75 0 0.0 0.9 0.00 0.15 0.00 97 1014.8
20260901090519 75 0 0.0 0.9 0.00 0.15 0.00 97 1014.9
20260901090043 75 0 0.0 0.9 0.00 0.15 0.00 97 1014.9
20260901085525 75 0 0.0 0.9 0.00 0.15 0.00 97 1014.9
20260901085024 75 0 0.0 1.7 0.00 0.15 0.00 97 1014.9
20260901084542 75 0 0.0 1.7 0.00 0.15 0.00 97 1014.9
20260901084024 74 0 0.0 0.9 0.00 0.15 0.00 97 1014.9
20260901083519 74 0 0.0 0.0 0.00 0.15 0.00 97 1014.9
20260901083042 74 0 0.0 0.0 0.00 0.15 0.00 97 1014.8
20260901082518 74 0 0.0 0.9 0.00 0.15 0.00 97 1014.8
20260901082101 74 0 0.0 0.9 0.00 0.15 0.00 97 1014.8
20260901081540 74 0 0.0 0.9 0.00 0.15 0.00 97 1014.9
20260901081025 74 0 0.0 0.0 0.00 0.15 0.00 97 1014.8
20260901080525 74 0 0.0 0.0 0.00 0.15 0.00 97 1014.7
20260901080045 74 0 0.0 0.0 0.00 0.15 0.00 97 1014.8
20260901075525 74 0 0.0 0.0 0.00 0.15 0.00 97 1014.9
20260901075024 73 0 0.0 0.0 0.00 0.15 0.00 97 1014.9
20260901074541 73 0 0.0 0.0 0.00 0.15 0.00 97 1014.9
20260901074024 73 0 0.0 0.0 0.00 0.15 0.00 97 1014.9
20260901073524 73 0 0.0 0.0 0.00 0.15 0.00 97 1014.9
20260901073042 73 0 0.0 0.0 0.00 0.15 0.00 97 1014.9
20260901072524 73 0 0.0 0.0 0.00 0.15 0.00 97 1015.0
20260901072024 72 0 0.0 0.0 0.00 0.15 0.00 97 1014.9
20260901071540 73 0 0.0 0.0 0.00 0.15 0.00 97 1015.0
20260901071025 73 0 0.0 0.9 0.00 0.15 0.00 97 1015.0
20260901070526 73 0 0.0 0.9 0.00 0.15 0.00 97 1015.1
20260901070044 73 0 0.0 0.0 0.00 0.15 0.00 97 1015.3
20260901065525 73 0 0.0 0.9 0.00 0.15 0.00 97 1015.3
20260901065021 73 0 0.0 0.9 0.00 0.15 0.00 97 1015.5
20260901064543 73 0 0.0 0.9 0.00 0.15 0.00 97 1015.5
20260901064022 73 0 0.0 0.0 0.00 0.15 0.00 97 1015.7
20260901063517 73 0 0.0 0.0 0.00 0.15 0.00 97 1015.8
20260901063041 73 0 0.0 0.0 0.00 0.15 0.00 97 1015.7
20260901062518 73 0 0.0 0.0 0.00 0.15 0.00 97 1015.9
20260901062025 73 0 0.0 0.0 0.00 0.15 0.00 97 1016.0
20260901061541 73 0 0.0 0.0 0.00 0.15 0.00 96 1016.2
20260901061023 73 0 0.0 0.0 0.00 0.15 0.00 96 1016.3
20260901060525 73 0 0.0 0.0 0.00 0.15 0.00 97 1016.4
20260901060043 73 0 0.0 0.0 0.00 0.15 0.00 96 1016.4
20260901055524 73 0 0.0 0.0 0.00 0.15 0.00 97 1016.5
20260901055021 73 0 0.0 0.9 0.00 0.15 0.00 97 1016.4
20260901054544 73 0 0.0 1.7 0.00 0.15 0.00 96 1016.4
20260901054020 73 0 0.0 1.7 0.00 0.15 0.00 96 1016.5
20260901053520 73 290 0.9 1.7 0.00 0.15 0.00 96 1016.6
20260901053104 73 290 0.0 1.7 0.00 0.15 0.00 97 1016.6
20260901052527 73 0 0.0 0.0 0.00 0.15 0.00 96 1016.6
20260901052023 73 0 0.0 0.0 0.00 0.15 0.00 97 1016.7
20260901051559 73 0 0.0 0.0 0.00 0.15 0.00 96 1016.7
20260901051023 73 0 0.0 0.0 0.00 0.15 0.00 96 1016.6
20260901050518 73 0 0.0 0.0 0.00 0.15 0.00 96 1016.6
20260901050042 73 0 0.0 0.0 0.00 0.15 0.00 96 1016.6
20260901045521 73 0 0.0 0.0 0.00 0.15 0.00 96 1016.7
20260901045027 73 0 0.0 0.0 0.00 0.15 0.00 96 1016.8
20260901044553 73 0 0.0 0.0 0.00 0.15 0.00 96 1016.8
20260901044025 73 0 0.0 0.0 0.00 0.15 0.00 96 1016.9
20260901043523 73 0 0.0 0.0 0.00 0.15 0.00 96 1016.9
20260901043044 73 0 0.0 0.0 0.00 0.15 0.00 96 1017.1
20260901042521 74 0 0.0 0.0 0.00 0.15 0.00 96 1017.0
20260901042020 74 0 0.0 0.0 0.00 0.15 0.00 96 1017.1
20260901041541 73 0 0.0 0.0 0.00 0.15 0.00 96 1017.1
20260901041021 74 0 0.0 0.0 0.00 0.15 0.00 96 1017.1
20260901040525 74 0 0.0 0.0 0.00 0.15 0.00 96 1017.0
20260901040108 74 0 0.0 0.0 0.00 0.15 0.00 96 1017.1
20260901035529 74 0 0.0 0.0 0.00 0.15 0.15 96 1017.1
20260901035023 74 0 0.0 0.0 0.00 0.15 0.15 96 1017.2
20260901034559 74 0 0.0 0.0 0.00 0.15 0.15 96 1017.0
20260901034022 74 0 0.0 0.0 0.00 0.15 0.15 96 1017.0
20260901033520 74 0 0.0 0.0 0.00 0.15 0.15 96 1017.0
20260901033042 74 0 0.0 0.0 0.00 0.15 0.15 96 1017.1
20260901032525 74 0 0.0 0.0 0.00 0.15 0.15 96 1017.2
20260901032025 74 0 0.0 0.0 0.00 0.15 0.15 96 1017.1
20260901031543 74 0 0.0 0.0 0.00 0.15 0.15 96 1017.1
20260901031023 74 0 0.0 0.0 0.00 0.15 0.15 96 1017.1
20260901030523 74 0 0.0 0.0 0.00 0.15 0.15 96 1017.2
20260901030042 74 0 0.0 0.0 0.00 0.15 0.15 96 1017.2
20260901025524 74 0 0.0 0.0 0.00 0.15 0.15 96 1017.3
20260901025021 74 0 0.0 0.0 0.00 0.15 0.15 96 1017.3
20260901024545 74 0 0.0 0.0 0.00 0.15 0.15 96 1017.3
20260901024028 74 0 0.0 0.0 0.00 0.15 0.15 96 1017.3
20260901023525 74 0 0.0 0.0 0.00 0.15 0.15 96 1017.2
20260901023105 74 0 0.0 0.0 0.00 0.15 0.15 96 1017.2
20260901022524 74 0 0.0 0.0 0.00 0.15 0.15 96 1017.1
20260901022023 74 0 0.0 0.0 0.00 0.15 0.15 96 1017.0
20260901021552 74 0 0.0 0.0 0.00 0.15 0.15 96 1017.0
20260901021026 74 0 0.0 0.0 0.00 0.15 0.15 95 1017.0
20260901020525 74 0 0.0 2.6 0.00 0.15 0.15 95 1016.8
20260901020050 74 0 0.0 2.6 0.00 0.15 0.15 95 1016.7
20260901015526 74 290 0.9 2.6 0.00 0.15 0.15 95 1016.7
20260901015026 74 36 0.0 0.9 0.00 0.15 0.15 95 1016.6
20260901014554 75 0 0.0 0.0 0.00 0.15 0.15 95 1016.6
20260901014024 75 0 0.0 0.0 0.00 0.15 0.15 95 1016.4
20260901013524 75 0 0.0 0.0 0.00 0.15 0.15 95 1016.3
20260901013045 75 0 0.0 0.0 0.00 0.15 0.15 95 1016.3
20260901012525 75 0 0.0 0.0 0.00 0.15 0.15 95 1016.3
20260901012025 75 0 0.0 0.0 0.00 0.15 0.15 95 1016.1
20260901011549 75 0 0.0 0.0 0.00 0.15 0.15 95 1016.1
20260901011025 75 0 0.0 0.0 0.00 0.15 0.15 95 1016.0
20260901010526 75 0 0.0 0.0 0.00 0.15 0.15 95 1016.0
20260901010045 75 0 0.0 2.6 0.00 0.15 0.15 95 1016.1
20260901005530 75 0 0.0 2.6 0.00 0.15 0.15 94 1015.9
20260901005028 75 36 0.9 2.6 0.00 0.15 0.15 94 1015.9
20260901004558 75 90 0.9 2.6 0.00 0.15 0.15 94 1015.8
20260901004025 76 90 0.0 0.9 0.00 0.15 0.15 94 1015.8
20260901003526 76 0 0.0 0.0 0.00 0.15 0.15 94 1015.8
20260901003044 75 0 0.0 0.0 0.00 0.15 0.15 94 1015.8
20260901002526 75 0 0.0 0.0 0.00 0.15 0.15 94 1015.8
20260901002024 75 0 0.0 0.0 0.00 0.15 0.15 94 1015.8
20260901001542 75 0 0.0 0.0 0.00 0.15 0.15 94 1015.9
20260901001026 76 0 0.0 0.0 0.00 0.15 0.15 93 1015.9
20260901000525 76 0 0.0 2.6 0.00 0.15 0.15 93 1015.7
20260901000049 76 0 0.0 3.5 0.00 0.15 0.15 93 1015.6
20260831235525 76 90 0.9 3.5 0.00 0.15 0.15 93 1015.6
20260831235026 76 79 0.9 3.5 0.00 0.15 0.15 93 1015.5
20260831234545 76 0 0.0 1.7 0.00 0.15 0.15 93 1015.6
20260831234024 77 86 0.0 1.7 0.00 0.15 0.15 92 1015.6
20260831233524 77 0 0.0 2.6 0.00 0.15 0.15 93 1015.6
20260831233042 77 90 0.0 3.5 0.00 0.15 0.15 93 1015.6
20260831232535 76 110 0.9 3.5 0.00 0.15 0.15 93 1015.7
20260831232025 76 92 1.7 3.5 0.00 0.15 0.15 92 1015.7
20260831231544 77 118 1.7 3.5 0.00 0.15 0.15 92 1015.7
20260831231025 77 83 1.7 4.3 0.00 0.15 0.15 92 1015.6
20260831230529 77 81 1.7 6.1 0.00 0.15 0.15 92 1015.6
20260831230046 77 76 1.7 6.1 0.00 0.15 0.15 93 1015.7
20260831225523 77 119 1.7 5.2 0.00 0.15 0.15 92 1015.6
20260831225026 77 101 1.7 7.0 0.00 0.15 0.15 92 1015.6
20260831224541 77 73 2.6 7.0 0.01 0.15 0.15 92 1015.5
20260831224025 77 57 3.5 7.8 0.01 0.15 0.15 93 1015.4
20260831223530 76 90 4.3 9.6 0.02 0.15 0.15 93 1015.5
20260831223042 76 85 5.2 9.6 0.04 0.15 0.15 93 1015.5
20260831222524 76 78 4.3 10.4 0.04 0.15 0.15 93 1015.7
20260831222026 76 68 4.3 11.3 0.05 0.15 0.15 93 1015.7
20260831221556 76 58 7.0 12.2 0.06 0.15 0.15 94 1015.5
20260831221028 77 85 6.1 12.2 0.07 0.15 0.15 94 1015.6
20260831220520 77 86 5.2 9.6 0.08 0.15 0.15 94 1015.6